Location: Kosice
(0.0000°N, 21.2500°E)
Time: 05:48:46
(UTC+01:00)

Meteor 2-10 Rocket - Pass Details

Date: 24 January 2021
Orbit: 733 x 885 km, 81.2° (Epoch: 04 March)

Event Time Altitude Azimuth Distance (km) Brightness Sun altitude
Rises 18:02:08 0° 351° (N) 3,223 6.6 -3.5°
Reaches altitude 10° 18:04:31 10° 349° (NNW) 2,280 5.9 -4.1°
Maximum altitude 18:09:35 71° 265° (W) 787 3.9 -5.3°
Drops below altitude 10° 18:14:34 10° 181° (S) 2,238 6.2 -6.5°
Sets 18:16:53 0° 179° (S) 3,158 6.9 -7.0°
